Woodward, OK

8:26 PM CDT on April 24, 2018 (GMT -0500)
West Woodward

Weather History for KWWR - December, 2013

Change the Weather History Date:

Saturday, December 7, 2013

  Actual Average (KGAG) Record (KGAG)
Temperature  
Mean Temperature 11 °F -  
Max Temperature 19 °F 51 °F 77 °F (1966)
Min Temperature 3 °F 24 °F -3 °F (1950)
Degree Days  
Heating Degree Days 54    
Moisture  
Dew Point 0 °F    
Average Humidity 56    
Maximum Humidity 73    
Minimum Humidity 38    
Precipitation  
Precipitation 0.00 in - - ()
Sea Level Pressure  
Sea Level Pressure 30.43 in    
Wind  
Wind Speed 7 mph (East)    
Max Wind Speed 14 mph    
Max Gust Speed -    
Visibility 10 miles    
Events Snow    
Averages and records for this station are not official NWS values.
T = Trace of Precipitation, MM = Missing Value Source: NWS Daily Summary

Daily Weather History Graph

Daily Weather History Graph

Search for Another Location

Airport or City:

Astronomy

Dec. 07, 2013 Rise Set
Actual Time 7:36 AM CST 5:22 PM CST
Civil Twilight 7:08 AM CST 5:51 PM CST
Nautical Twilight 6:36 AM CST 6:23 PM CST
Astronomical Twilight 6:04 AM CST 6:54 PM CST
Moon 11:28 AM CST (12/7) 10:59 PM CST (12/7)
Length of Visible Light 10h 42m
Length of Day
9h 45m
Waxing Crescent, 29% of the Moon is Illuminated
Dec 7
Waxing Crescent
Dec 9
First Quarter
Dec 17
Full
Dec 25
Last Quarter
Jan 1
New

Hourly Weather History & Observations

Time (CST) Temp. Windchill Dew Point Humidity Pressure Visibility Wind Dir Wind Speed Gust Speed Precip Events Conditions
12:15 AM 8.6 °F 0.1 °F -4.0 °F 57% 30.57 in 10.0 mi North 4.6 mph - N/A   Clear
12:35 AM 6.8 °F -2.0 °F -4.0 °F 61% 30.58 in 10.0 mi NNE 4.6 mph - N/A   Clear
12:55 AM 6.8 °F -3.5 °F -4.0 °F 61% 30.58 in 10.0 mi North 5.8 mph - N/A   Clear
1:15 AM 6.8 °F -4.8 °F -4.0 °F 61% 30.57 in 10.0 mi NNE 6.9 mph - N/A   Clear
1:35 AM 8.6 °F -2.6 °F -4.0 °F 57% 30.56 in 10.0 mi NNE 6.9 mph - N/A   Clear
1:55 AM 8.6 °F -2.6 °F -4.0 °F 57% 30.56 in 10.0 mi NNE 6.9 mph - N/A   Clear
2:15 AM 6.8 °F -5.9 °F -4.0 °F 61% 30.56 in 10.0 mi NE 8.1 mph - N/A   Clear
2:35 AM 6.8 °F -4.8 °F -4.0 °F 61% 30.55 in 10.0 mi NNE 6.9 mph - N/A   Clear
2:55 AM 6.8 °F -3.5 °F -4.0 °F 61% 30.56 in 10.0 mi NNE 5.8 mph - N/A   Clear
3:15 AM 5.0 °F -6.9 °F -4.0 °F 66% 30.56 in 10.0 mi NE 6.9 mph - N/A   Clear
3:35 AM 5.0 °F -5.6 °F -4.0 °F 66% 30.56 in 10.0 mi NE 5.8 mph - N/A   Clear
3:55 AM 5.0 °F -5.6 °F -4.0 °F 66% 30.56 in 10.0 mi NE 5.8 mph - N/A   Clear
4:15 AM 5.0 °F -8.1 °F -4.0 °F 66% 30.55 in 10.0 mi NE 8.1 mph - N/A   Clear
4:35 AM 5.0 °F -6.9 °F -4.0 °F 66% 30.55 in 10.0 mi NE 6.9 mph - N/A   Clear
4:55 AM 5.0 °F -5.6 °F -4.0 °F 66% 30.55 in 10.0 mi NE 5.8 mph - N/A   Clear
5:15 AM 5.0 °F -5.6 °F -4.0 °F 66% 30.55 in 10.0 mi NE 5.8 mph - N/A   Clear
5:35 AM 5.0 °F -4.1 °F -4.0 °F 66% 30.55 in 10.0 mi NNE 4.6 mph - N/A   Clear
5:55 AM 5.0 °F -4.1 °F -4.0 °F 66% 30.55 in 10.0 mi NNE 4.6 mph - N/A   Clear
6:15 AM 5.0 °F -4.1 °F -4.0 °F 66% 30.55 in 10.0 mi NE 4.6 mph - N/A   Clear
6:35 AM 5.0 °F -2.1 °F -4.0 °F 66% 30.55 in 10.0 mi NNE 3.5 mph - N/A   Clear
6:55 AM 3.2 °F -4.2 °F -4.0 °F 72% 30.55 in 10.0 mi North 3.5 mph - N/A   Clear
7:15 AM 3.2 °F -6.2 °F -4.0 °F 72% 30.55 in 10.0 mi North 4.6 mph - N/A   Clear
7:35 AM 3.2 °F -4.2 °F -4.0 °F 72% 30.57 in 10.0 mi NNW 3.5 mph - N/A   Clear
7:55 AM 3.2 °F -4.2 °F -4.0 °F 72% 30.57 in 10.0 mi NW 3.5 mph - N/A   Clear
8:15 AM 5.0 °F - -4.0 °F 66% 30.58 in 10.0 mi Calm Calm - N/A   Clear
8:35 AM 6.8 °F - -2.2 °F 67% 30.58 in 10.0 mi Calm Calm - N/A   Clear
8:55 AM 8.6 °F 0.1 °F -2.2 °F 62% 30.57 in 10.0 mi East 4.6 mph - N/A   Clear
9:15 AM 10.4 °F 0.8 °F -2.2 °F 57% 30.56 in 10.0 mi East 5.8 mph - N/A   Clear
9:35 AM 12.2 °F 0.7 °F -2.2 °F 53% 30.57 in 10.0 mi East 8.1 mph - N/A   Clear
9:55 AM 12.2 °F 0.7 °F -0.4 °F 57% 30.56 in 10.0 mi ENE 8.1 mph - N/A   Clear
10:15 AM 12.2 °F -0.2 °F -0.4 °F 57% 30.54 in 10.0 mi ENE 9.2 mph - N/A   Scattered Clouds
10:35 AM 12.2 °F 2.9 °F -0.4 °F 57% 30.53 in 10.0 mi East 5.8 mph - N/A   Mostly Cloudy
10:55 AM 14.0 °F 2.9 °F -0.4 °F 53% 30.52 in 10.0 mi East 8.1 mph - N/A   Scattered Clouds
11:15 AM 14.0 °F 2.9 °F -0.4 °F 53% 30.52 in 10.0 mi East 8.1 mph - N/A   Overcast
11:35 AM 15.8 °F 3.4 °F -0.4 °F 49% 30.49 in 10.0 mi East 10.4 mph - N/A   Overcast
11:55 AM 17.6 °F 6.4 °F -2.2 °F 42% 30.48 in 10.0 mi East 9.2 mph - N/A   Overcast
12:15 PM 17.6 °F 3.7 °F -4.0 °F 38% 30.43 in 10.0 mi East 13.8 mph - N/A   Mostly Cloudy
12:35 PM 17.6 °F 5.0 °F -2.2 °F 42% 30.42 in 10.0 mi East 11.5 mph - N/A   Mostly Cloudy
12:55 PM 19.4 °F 9.5 °F -2.2 °F 39% 30.42 in 10.0 mi ESE 8.1 mph - N/A   Overcast
1:15 PM 19.4 °F 7.2 °F -2.2 °F 39% 30.39 in 10.0 mi East 11.5 mph - N/A   Overcast
1:35 PM 19.4 °F 11.5 °F -2.2 °F 39% 30.40 in 10.0 mi East 5.8 mph - N/A   Overcast
1:55 PM 19.4 °F 12.8 °F -0.4 °F 42% 30.40 in 10.0 mi East 4.6 mph - N/A   Overcast
2:15 PM 19.4 °F 10.4 °F -0.4 °F 42% 30.38 in 10.0 mi ESE 6.9 mph - N/A   Overcast
2:35 PM 19.4 °F 10.4 °F -2.2 °F 39% 30.38 in 10.0 mi SE 6.9 mph - N/A   Overcast
2:55 PM 19.4 °F 10.4 °F -0.4 °F 42% 30.37 in 10.0 mi East 6.9 mph - N/A   Overcast
3:15 PM 19.4 °F 10.4 °F -0.4 °F 42% 30.36 in 10.0 mi East 6.9 mph - N/A   Overcast
3:35 PM 19.4 °F 8.6 °F -0.4 °F 42% 30.35 in 10.0 mi East 9.2 mph - N/A   Overcast
3:55 PM 19.4 °F 10.4 °F -0.4 °F 42% 30.35 in 10.0 mi East 6.9 mph - N/A   Overcast
4:15 PM 19.4 °F 10.4 °F -0.4 °F 42% 30.34 in 10.0 mi ESE 6.9 mph - N/A   Overcast
4:35 PM 19.4 °F 9.5 °F -0.4 °F 42% 30.33 in 10.0 mi East 8.1 mph - N/A   Overcast
4:55 PM 19.4 °F 10.4 °F -0.4 °F 42% 30.32 in 10.0 mi East 6.9 mph - N/A   Overcast
5:15 PM 19.4 °F 10.4 °F -2.2 °F 39% 30.32 in 10.0 mi East 6.9 mph - N/A   Overcast
5:35 PM 19.4 °F 11.5 °F -2.2 °F 39% 30.32 in 10.0 mi ESE 5.8 mph - N/A   Overcast
5:55 PM 19.4 °F 9.5 °F -0.4 °F 42% 30.30 in 10.0 mi ESE 8.1 mph - N/A   Overcast
6:15 PM 19.4 °F 7.9 °F -0.4 °F 42% 30.27 in 10.0 mi ESE 10.4 mph - N/A   Overcast
6:35 PM 19.4 °F 7.2 °F -0.4 °F 42% 30.27 in 10.0 mi ESE 11.5 mph - N/A   Overcast
6:55 PM 19.4 °F 7.9 °F -0.4 °F 42% 30.27 in 10.0 mi ESE 10.4 mph - N/A   Overcast
7:15 PM 19.4 °F 8.6 °F -0.4 °F 42% 30.26 in 10.0 mi ESE 9.2 mph - N/A   Overcast
7:35 PM 19.4 °F 11.5 °F -0.4 °F 42% 30.26 in 10.0 mi East 5.8 mph - N/A   Overcast
7:55 PM 19.4 °F 9.5 °F -0.4 °F 42% 30.26 in 10.0 mi ESE 8.1 mph - N/A   Overcast
8:15 PM 19.4 °F 8.6 °F 1.4 °F 46% 30.24 in 10.0 mi SE 9.2 mph - N/A   Overcast
8:35 PM 19.4 °F 9.5 °F 5.0 °F 54% 30.24 in 10.0 mi SE 8.1 mph - N/A Snow Light Snow
8:55 PM 17.6 °F 7.3 °F 6.8 °F 63% 30.24 in 10.0 mi SE 8.1 mph - N/A Snow Light Snow
9:15 PM 17.6 °F 5.7 °F 8.6 °F 68% 30.23 in 10.0 mi SE 10.4 mph - N/A Snow Light Snow
9:35 PM 17.6 °F 6.4 °F 10.4 °F 73% 30.23 in 10.0 mi SE 9.2 mph - N/A Snow Light Snow
9:55 PM 17.6 °F 7.3 °F 10.4 °F 73% 30.22 in 7.0 mi SE 8.1 mph - N/A Snow Light Snow
10:15 PM 17.6 °F 5.0 °F 10.4 °F 73% 30.20 in 7.0 mi SE 11.5 mph - N/A Snow Light Snow
10:35 PM 17.6 °F 7.3 °F 10.4 °F 73% 30.20 in 10.0 mi SE 8.1 mph - N/A   Overcast
10:55 PM 17.6 °F 7.3 °F 10.4 °F 73% 30.20 in 10.0 mi SE 8.1 mph - N/A   Overcast
11:15 PM 17.6 °F 5.0 °F 10.4 °F 73% 30.19 in 10.0 mi SE 11.5 mph - N/A   Overcast
11:35 PM 19.4 °F 7.9 °F 10.4 °F 68% 30.17 in 10.0 mi SE 10.4 mph - N/A   Overcast
11:55 PM 19.4 °F 8.6 °F 10.4 °F 68% 30.17 in 10.0 mi SE 9.2 mph - N/A   Overcast